• Join FlightAware (Why Join?)
  • Login
  • US Flag 
03:19PM EST


 

Airport Tracker/Info


-or-


 

Live Flight TrackerFlight Track Log ✈ N41NW ✈ 27-Nov-2006 ✈ KAUS - KBHM

Flight Track Log - Related Links

Times and Time Zones

All times are in EST time to prevent confusion due to time zone crossing. See the N41NW flight status page for this flight to view local times or setup timezone preferences in your user account.

Time Position Orientation Groundspeed Altitude Reporting Facility
EST Latitude Longitude Course Direction KTS MPH feet Rate Location/Type
09:55AM 30.1333 -97.6167 65° Northeast 253 291 41,000  Level
09:56AM 30.1667 -97.5333 55° Northeast 279 321 9,200 -14,400 Descending
09:57AM 30.2167 -97.4500 55° Northeast 279 321 12,200 3,000 Climbing
09:58AM 30.2667 -97.3667 55° Northeast 295 339 15,300 2,400 Climbing
09:59AM 30.3167 -97.2833 60° Northeast 320 368 17,100 1,680 Climbing
10:00AM 30.3667 -97.1833 90° East 341 392 18,700 1,620 Climbing
10:01AM 30.3667 -97.0500 99° East 381 438 20,400 1,740 Climbing
10:02AM 30.3500 -96.9333 90° East 391 450 22,200 1,500 Climbing
10:03AM 30.3500 -96.8000 90° East 405 466 23,500 1,800 Climbing
10:04AM 30.3500 -96.6500 90° East 426 490 25,800 1,740 Climbing
10:05AM 30.3500 -96.5167 98° East 419 482 27,000 1,200 Climbing
10:06AM 30.3333 -96.3833 97° East 431 496 28,200 1,260 Climbing
10:07AM 30.3167 -96.2333 98° East 431 496 29,600 1,380 Climbing
10:08AM 30.3000 -96.1000 90° East 447 514 31,000 1,260 Climbing
10:09AM 30.3000 -95.9500 63° Northeast 447 514 32,200 1,200 Climbing
10:10AM 30.3667 -95.8000 60° Northeast 456 525 33,400 1,200 Climbing
10:11AM 30.4333 -95.6667 69° East 472 543 34,700 960 Climbing
10:12AM 30.4833 -95.5167 75° East 486 559 35,400 840 Climbing
10:13AM 30.5167 -95.3667 69° East 486 559 36,400 960 Climbing
10:14AM 30.5667 -95.2167 76° East 486 559 37,400 840 Climbing
10:15AM 30.6000 -95.0667 63° Northeast 494 568 38,100 780 Climbing
10:16AM 30.6667 -94.9167 69° East 488 562 39,000 420 Climbing
10:17AM 30.7167 -94.7667 77° East 494 568 39,000  Level
10:18AM 30.7500 -94.6000 75° East 500 575 39,000  Level
10:19AM 30.7833 -94.4500 65° Northeast 510 587 39,000  Level
10:20AM 30.8500 -94.2833 69° East 521 600 39,000  Level
10:21AM 30.9000 -94.1333 71° East 526 605 39,000  Level
10:22AM 30.9500 -93.9667 71° East 526 605 39,000  Level
10:23AM 31.0000 -93.8000 77° East 526 605 39,000  Level
10:24AM 31.0333 -93.6333 63° Northeast 521 600 39,000  Level
10:25AM 31.1000 -93.4833 71° East 521 600 39,000  Level
10:26AM 31.1500 -93.3167 77° East 521 600 39,000  Level
10:27AM 31.1833 -93.1500 71° East 521 600 39,000  Level
10:28AM 31.2333 -92.9833 71° East 521 600 39,000  Level
10:29AM 31.2833 -92.8167 69° East 521 600 39,000  Level
10:30AM 31.3333 -92.6667 71° East 521 600 39,000  Level
10:31AM 31.3833 -92.5000 71° East 521 600 39,000  Level
10:32AM 31.4333 -92.3333 75° East 529 609 39,000  Level
10:33AM 31.4667 -92.1833 90° East 522 601 39,000  Level
10:33AM 31.4667 -92.1667 69° East 518 596 39,000  Level
10:34AM 31.5167 -92.0167 90° East 522 601 39,000  Level
10:34AM 31.5167 -92.0000 72° East 518 596 39,000  Level
10:35AM 31.5667 -91.8167 71° East 537 618 39,000  Level
10:36AM 31.6167 -91.6500 69° East 527 606 39,000  Level
10:37AM 31.6667 -91.5000 77° East 521 600 39,000  Level
10:38AM 31.7000 -91.3333 71° East 521 600 39,000  Level
10:39AM 31.7500 -91.1667 71° East 521 600 39,000  Level
10:40AM 31.8000 -91.0000 71° East 521 600 39,000  Level
10:41AM 31.8500 -90.8333 75° East 516 594 39,000  Level
10:42AM 31.8833 -90.6833 70° East 516 594 39,000  Level
10:43AM 31.9333 -90.5167 70° East 521 600 39,000  Level
10:44AM 31.9833 -90.3500 77° East 521 600 39,000  Level
10:45AM 32.0167 -90.1833 70° East 521 600 39,000  Level
10:46AM 32.0667 -90.0167 75° East 516 594 39,000  Level
10:47AM 32.1000 -89.8667 70° East 516 594 39,000  Level
10:48AM 32.1500 -89.7000 77° East 521 600 39,000 -180 Level
10:49AM 32.1833 -89.5333 70° East 516 594 38,700 -900 Descending
10:50AM 32.2333 -89.3667 70° East 516 594 37,300 -1,200 Descending
10:51AM 32.2833 -89.2000 75° East 521 600 36,300 -1,500 Descending
10:52AM 32.3167 -89.0500 72° East 521 600 34,400 -1,800 Descending
10:53AM 32.3667 -88.8667 68° East 521 600 32,700 -1,800 Descending
10:54AM 32.4167 -88.7167 50° Northeast 502 578 30,900 -1,920 Descending
10:55AM 32.5000 -88.6000 44° Northeast 497 572 28,900 -1,800 Descending
10:56AM 32.6000 -88.4833 53° Northeast 485 558 27,400 -1,920 Descending
10:57AM 32.6833 -88.3500 50° Northeast 485 558 25,100 -2,040 Descending
10:58AM 32.7667 -88.2333 360° North 480 552 23,400 -1,500 Descending
10:58AM 32.7833 -88.2333 59° Northeast 480 552 23,400 -1,980 Level
10:59AM 32.8500 -88.1000 45° Northeast 475 547 21,200 -1,980 Descending
11:00AM 32.9333 -88.0000 50° Northeast 459 528 19,500 -1,620 Descending
11:01AM 33.0167 -87.8833 52° Northeast 436 502 18,000 -1,680 Descending
11:02AM 33.0833 -87.7833 51° Northeast 425 489 16,200 -1,620 Descending
11:03AM 33.1500 -87.6833 51° Northeast 407 468 14,800 -1,500 Descending
11:04AM 33.2167 -87.5833 54° Northeast 388 447 13,200 -1,440 Descending
11:05AM 33.2667 -87.5000 51° Northeast 365 420 12,000 -120 Descending
11:06AM 33.3333 -87.4000 40° Northeast 341 392 13,000 -1,080 Climbing
11:07AM 33.4000 -87.3333 54° Northeast 325 374 9,900 -2,040 Descending
11:08AM 33.4500 -87.2500 90° East 312 359 9,000 -1,260 Descending
11:09AM 33.4500 -87.1667 79° East 285 328 7,400 -1,920 Descending
11:10AM 33.4667 -87.0667 73° East 280 322 5,200 -1,620 Descending
11:11AM 33.4833 -87.0000 90° East 256 295 4,200 -1,080 Descending
11:12AM 33.4833 -86.9333 73° East 224 258 3,100 -780 Descending
11:13AM 33.5000 -86.8667 73° East 200 230 2,700 -420 Descending